| time (UTC) | temp F | wind direction | speed knots | gust knots | rain 1hr in | rain 24hr in | rain mn in | humidity % | barometer mb |
| 20260503000507 | 67 | 5 | 0.0 | 0.0 | 0.00 | 0.12 | 0.00 | 55 | 1018.6 |
| 20260503000010 | 67 | 5 | 0.0 | 0.0 | 0.00 | 0.12 | 0.00 | 58 | 1018.6 |
| 20260502235006 | 68 | 5 | 0.0 | 0.0 | 0.00 | 0.27 | 0.00 | 54 | 1018.5 |
| 20260502234506 | 68 | 315 | 0.0 | 0.0 | 0.00 | 0.27 | 0.00 | 53 | 1018.4 |
| 20260502234008 | 68 | 315 | 0.0 | 0.0 | 0.00 | 0.27 | 0.00 | 56 | 1018.5 |
| 20260502233506 | 68 | 315 | 0.0 | 0.0 | 0.00 | 0.27 | 0.00 | 53 | 1018.5 |
| 20260502233009 | 69 | 315 | 0.0 | 0.0 | 0.00 | 0.27 | 0.00 | 53 | 1018.4 |
| 20260502232505 | 69 | 349 | 0.0 | 0.0 | 0.00 | 0.27 | 0.00 | 51 | 1018.3 |
| 20260502232007 | 69 | 351 | 0.9 | 1.7 | 0.00 | 0.27 | 0.00 | 50 | 1018.2 |
| 20260502231507 | 69 | 25 | 0.9 | 2.6 | 0.00 | 0.27 | 0.00 | 50 | 1018.2 |
| 20260502231006 | 69 | 28 | 0.0 | 2.6 | 0.00 | 0.27 | 0.00 | 49 | 1018.3 |
| 20260502230009 | 70 | 17 | 0.9 | 2.6 | 0.00 | 0.27 | 0.00 | 49 | 1018.1 |
| 20260502225506 | 70 | 360 | 1.7 | 3.5 | 0.00 | 0.36 | 0.00 | 49 | 1018.1 |
| 20260502225007 | 70 | 24 | 0.9 | 3.5 | 0.00 | 0.36 | 0.00 | 47 | 1018.1 |
| 20260502224507 | 70 | 21 | 0.0 | 3.5 | 0.00 | 0.36 | 0.00 | 47 | 1018.0 |
| 20260502223505 | 70 | 355 | 0.9 | 2.6 | 0.00 | 0.36 | 0.00 | 49 | 1017.9 |
| 20260502222506 | 70 | 30 | 1.7 | 4.3 | 0.00 | 0.36 | 0.00 | 46 | 1018.0 |
| 20260502222007 | 70 | 19 | 1.7 | 3.5 | 0.00 | 0.36 | 0.00 | 46 | 1018.0 |
| 20260502221507 | 71 | 15 | 0.9 | 3.5 | 0.00 | 0.36 | 0.00 | 46 | 1017.9 |
| 20260502221008 | 71 | 26 | 0.9 | 3.5 | 0.00 | 0.36 | 0.00 | 46 | 1017.9 |
| 20260502220505 | 71 | 16 | 0.9 | 3.5 | 0.00 | 0.36 | 0.00 | 45 | 1017.9 |
| 20260502220009 | 71 | 360 | 0.9 | 2.6 | 0.00 | 0.36 | 0.00 | 45 | 1017.9 |
| 20260502215507 | 71 | 5 | 0.9 | 2.6 | 0.00 | 0.37 | 0.00 | 44 | 1017.9 |
| 20260502215007 | 72 | 335 | 0.9 | 2.6 | 0.00 | 0.37 | 0.00 | 46 | 1017.8 |
| 20260502214506 | 72 | 5 | 0.9 | 2.6 | 0.00 | 0.37 | 0.00 | 47 | 1017.9 |
| 20260502213506 | 72 | 84 | 0.9 | 3.5 | 0.00 | 0.37 | 0.00 | 46 | 1017.7 |
| 20260502213008 | 72 | 347 | 0.9 | 5.2 | 0.00 | 0.37 | 0.00 | 45 | 1017.9 |
| 20260502212508 | 73 | 16 | 0.9 | 5.2 | 0.00 | 0.37 | 0.00 | 46 | 1017.9 |
| 20260502212007 | 73 | 11 | 0.9 | 2.6 | 0.00 | 0.37 | 0.00 | 44 | 1017.8 |
| 20260502211507 | 73 | 360 | 0.9 | 2.6 | 0.00 | 0.37 | 0.00 | 44 | 1017.9 |
| 20260502211007 | 73 | 13 | 0.9 | 2.6 | 0.00 | 0.37 | 0.00 | 46 | 1018.0 |
| 20260502210505 | 73 | 30 | 0.9 | 2.6 | 0.00 | 0.37 | 0.00 | 45 | 1018.0 |
| 20260502210008 | 73 | 12 | 0.9 | 3.5 | 0.00 | 0.40 | 0.00 | 44 | 1018.1 |
| 20260502205006 | 73 | 5 | 0.9 | 3.5 | 0.00 | 0.40 | 0.00 | 45 | 1018.3 |
| 20260502204006 | 74 | 336 | 1.7 | 3.5 | 0.00 | 0.40 | 0.00 | 43 | 1018.4 |
| 20260502203504 | 74 | 23 | 1.7 | 4.3 | 0.00 | 0.40 | 0.00 | 46 | 1018.5 |
| 20260502203009 | 74 | 26 | 1.7 | 4.3 | 0.00 | 0.40 | 0.00 | 44 | 1018.5 |
| 20260502202506 | 74 | 279 | 0.9 | 3.5 | 0.00 | 0.40 | 0.00 | 44 | 1018.5 |
| 20260502202008 | 74 | 112 | 0.9 | 2.6 | 0.00 | 0.40 | 0.00 | 46 | 1018.5 |
| 20260502201506 | 74 | 82 | 0.9 | 3.5 | 0.00 | 0.40 | 0.00 | 45 | 1018.6 |
| 20260502201006 | 74 | 13 | 0.9 | 3.5 | 0.00 | 0.40 | 0.00 | 47 | 1018.8 |
| 20260502200505 | 74 | 39 | 1.7 | 3.5 | 0.00 | 0.40 | 0.00 | 45 | 1018.6 |
| 20260502200010 | 74 | 54 | 1.7 | 4.3 | 0.00 | 0.40 | 0.00 | 46 | 1018.7 |
| 20260502195505 | 74 | 12 | 0.9 | 4.3 | 0.00 | 0.48 | 0.00 | 46 | 1018.7 |
| 20260502195010 | 74 | 307 | 0.9 | 2.6 | 0.00 | 0.48 | 0.00 | 47 | 1018.7 |
| 20260502194007 | 74 | 57 | 1.7 | 4.3 | 0.00 | 0.48 | 0.00 | 46 | 1019.0 |
| 20260502193507 | 74 | 60 | 1.7 | 4.3 | 0.00 | 0.48 | 0.00 | 47 | 1019.0 |
| 20260502193007 | 74 | 9 | 1.7 | 3.5 | 0.00 | 0.48 | 0.00 | 50 | 1019.2 |
| 20260502191508 | 74 | 23 | 1.7 | 5.2 | 0.00 | 0.48 | 0.00 | 46 | 1019.3 |
| 20260502191006 | 73 | 5 | 1.7 | 5.2 | 0.00 | 0.48 | 0.00 | 49 | 1019.4 |
| 20260502190508 | 73 | 355 | 1.7 | 5.2 | 0.00 | 0.48 | 0.00 | 47 | 1019.5 |
| 20260502185507 | 73 | 84 | 0.9 | 4.3 | 0.00 | 0.52 | 0.00 | 48 | 1019.3 |
| 20260502185008 | 73 | 46 | 0.9 | 4.3 | 0.00 | 0.52 | 0.00 | 48 | 1019.4 |
| 20260502184507 | 73 | 67 | 0.9 | 3.5 | 0.00 | 0.52 | 0.00 | 47 | 1019.5 |
| 20260502184007 | 72 | 30 | 1.7 | 5.2 | 0.00 | 0.52 | 0.00 | 50 | 1019.6 |
| 20260502183505 | 72 | 66 | 1.7 | 5.2 | 0.00 | 0.52 | 0.00 | 46 | 1019.6 |
| 20260502183008 | 72 | 11 | 1.7 | 3.5 | 0.00 | 0.52 | 0.00 | 52 | 1019.6 |
| 20260502182507 | 72 | 25 | 1.7 | 3.5 | 0.00 | 0.52 | 0.00 | 48 | 1019.6 |
| 20260502182007 | 72 | 123 | 1.7 | 3.5 | 0.00 | 0.52 | 0.00 | 51 | 1019.7 |
| 20260502181507 | 72 | 327 | 1.7 | 2.6 | 0.00 | 0.52 | 0.00 | 51 | 1019.7 |
| 20260502181008 | 72 | 45 | 1.7 | 3.5 | 0.00 | 0.52 | 0.00 | 48 | 1019.8 |
| 20260502180507 | 72 | 38 | 1.7 | 3.5 | 0.00 | 0.52 | 0.00 | 50 | 1019.9 |
| 20260502170505 | 69 | 355 | 0.9 | 2.6 | 0.00 | 0.55 | 0.00 | 59 | 1020.2 |
| 20260502164009 | 69 | 19 | 0.9 | 2.6 | 0.00 | 0.59 | 0.00 | 62 | 1020.5 |
| 20260502163010 | 68 | 26 | 0.9 | 3.5 | 0.00 | 0.59 | 0.00 | 63 | 1020.4 |
| 20260502162506 | 68 | 112 | 0.9 | 2.6 | 0.00 | 0.59 | 0.00 | 63 | 1020.6 |
| 20260502162006 | 67 | 17 | 0.9 | 3.5 | 0.00 | 0.59 | 0.00 | 68 | 1020.5 |
| 20260502161508 | 67 | 53 | 0.9 | 3.5 | 0.00 | 0.59 | 0.00 | 62 | 1020.5 |
| 20260502161007 | 67 | 53 | 0.9 | 4.3 | 0.00 | 0.59 | 0.00 | 65 | 1020.5 |
| 20260502160507 | 66 | 35 | 1.7 | 4.3 | 0.00 | 0.59 | 0.00 | 70 | 1020.4 |
| 20260502152008 | 62 | 30 | 0.9 | 4.3 | 0.00 | 0.65 | 0.00 | 80 | 1020.1 |
| 20260502151506 | 62 | 30 | 0.0 | 2.6 | 0.00 | 0.65 | 0.00 | 84 | 1020.0 |
| 20260502151007 | 61 | 22 | 0.0 | 0.0 | 0.00 | 0.65 | 0.00 | 88 | 1020.0 |
| 20260502150506 | 61 | 26 | 0.0 | 0.0 | 0.00 | 0.65 | 0.00 | 86 | 1019.9 |
| 20260502130505 | 52 | 26 | 0.9 | 2.6 | 0.00 | 0.87 | 0.00 | 96 | 1018.5 |
| 20260502123505 | 51 | 45 | 0.0 | 0.0 | 0.00 | 0.92 | 0.00 | 96 | 1017.9 |
| 20260502123008 | 51 | 45 | 0.0 | 0.0 | 0.00 | 0.92 | 0.00 | 96 | 1017.9 |
| 20260502122505 | 51 | 45 | 0.0 | 0.0 | 0.00 | 0.92 | 0.00 | 96 | 1017.9 |
| 20260502122005 | 51 | 45 | 0.0 | 0.0 | 0.00 | 0.92 | 0.00 | 96 | 1018.0 |
| 20260502121506 | 51 | 45 | 0.0 | 0.0 | 0.00 | 0.92 | 0.00 | 96 | 1018.0 |
| 20260502121005 | 51 | 45 | 0.0 | 0.0 | 0.00 | 0.92 | 0.00 | 96 | 1017.9 |
| 20260502120505 | 51 | 45 | 0.0 | 0.0 | 0.00 | 0.92 | 0.00 | 96 | 1017.8 |
| 20260502115505 | 51 | 45 | 0.0 | 0.0 | 0.00 | 0.92 | 0.00 | 96 | 1017.7 |
| 20260502115005 | 51 | 45 | 0.0 | 0.0 | 0.00 | 0.92 | 0.00 | 96 | 1017.6 |
| 20260502114505 | 51 | 45 | 0.0 | 0.0 | 0.00 | 0.92 | 0.00 | 96 | 1017.5 |
| 20260502114007 | 51 | 45 | 0.0 | 0.0 | 0.00 | 0.92 | 0.00 | 96 | 1017.5 |
| 20260502113504 | 51 | 45 | 0.0 | 0.0 | 0.00 | 0.92 | 0.00 | 96 | 1017.3 |
| 20260502113007 | 51 | 45 | 0.0 | 0.0 | 0.00 | 0.92 | 0.00 | 96 | 1017.3 |
| 20260502112505 | 51 | 45 | 0.0 | 0.0 | 0.00 | 0.92 | 0.00 | 96 | 1017.1 |
| 20260502112007 | 51 | 45 | 0.0 | 0.0 | 0.00 | 0.92 | 0.00 | 96 | 1017.1 |
| 20260502111506 | 51 | 45 | 0.0 | 0.0 | 0.00 | 0.92 | 0.00 | 96 | 1016.9 |
| 20260502111005 | 51 | 45 | 0.0 | 0.0 | 0.00 | 0.92 | 0.00 | 96 | 1016.8 |
| 20260502110505 | 51 | 45 | 0.0 | 0.0 | 0.00 | 0.92 | 0.00 | 96 | 1016.8 |
| 20260502105506 | 51 | 45 | 0.0 | 0.0 | 0.00 | 0.92 | 0.00 | 96 | 1016.8 |
| 20260502104506 | 51 | 46 | 0.0 | 0.0 | 0.00 | 0.92 | 0.00 | 96 | 1016.5 |
| 20260502104005 | 52 | 46 | 0.0 | 0.0 | 0.00 | 0.92 | 0.00 | 96 | 1016.5 |
| 20260502103505 | 52 | 45 | 0.0 | 0.0 | 0.00 | 0.92 | 0.00 | 96 | 1016.4 |
| 20260502103007 | 52 | 45 | 0.0 | 0.0 | 0.00 | 0.92 | 0.00 | 96 | 1016.6 |
| 20260502102506 | 52 | 46 | 0.0 | 0.0 | 0.00 | 0.92 | 0.00 | 96 | 1016.4 |
| 20260502102005 | 52 | 45 | 0.0 | 0.0 | 0.00 | 0.92 | 0.00 | 96 | 1016.3 |
| 20260502101505 | 52 | 46 | 0.0 | 0.0 | 0.00 | 0.92 | 0.00 | 96 | 1016.4 |
| 20260502101005 | 52 | 46 | 0.0 | 0.0 | 0.00 | 0.92 | 0.00 | 96 | 1016.4 |
| 20260502100504 | 52 | 46 | 0.0 | 0.0 | 0.00 | 0.92 | 0.00 | 96 | 1016.4 |
| 20260502091505 | 51 | 46 | 0.0 | 0.0 | 0.00 | 0.92 | 0.00 | 96 | 1016.3 |
| 20260502091006 | 51 | 46 | 0.0 | 0.0 | 0.00 | 0.92 | 0.00 | 96 | 1016.4 |
| 20260502090505 | 51 | 45 | 0.0 | 0.0 | 0.00 | 0.92 | 0.00 | 96 | 1016.5 |
| 20260502071505 | 51 | 45 | 0.0 | 0.0 | 0.00 | 0.92 | 0.00 | 96 | 1016.0 |
| 20260502071005 | 51 | 46 | 0.0 | 0.0 | 0.00 | 0.92 | 0.00 | 96 | 1016.1 |
| 20260502070505 | 51 | 45 | 0.0 | 0.0 | 0.00 | 0.92 | 0.00 | 96 | 1016.0 |
| 20260502070009 | 51 | 45 | 0.0 | 0.0 | 0.00 | 0.92 | 0.00 | 96 | 1016.0 |
| 20260502065506 | 51 | 45 | 0.0 | 0.0 | 0.00 | 0.92 | 0.00 | 96 | 1016.2 |
| 20260502065005 | 51 | 46 | 0.0 | 0.0 | 0.00 | 0.92 | 0.00 | 96 | 1016.3 |
| 20260502064005 | 51 | 45 | 0.0 | 0.0 | 0.00 | 0.92 | 0.00 | 96 | 1016.3 |
| 20260502062506 | 51 | 46 | 0.0 | 0.0 | 0.00 | 0.92 | 0.00 | 96 | 1016.3 |
| 20260502061505 | 51 | 46 | 0.0 | 0.0 | 0.00 | 0.92 | 0.00 | 96 | 1016.5 |
| 20260502061007 | 51 | 45 | 0.0 | 0.0 | 0.00 | 0.92 | 0.00 | 96 | 1016.5 |
| 20260502060505 | 51 | 46 | 0.0 | 0.0 | 0.00 | 0.92 | 0.00 | 96 | 1016.7 |
| 20260502055507 | 51 | 45 | 0.0 | 0.0 | 0.00 | 0.93 | 0.00 | 96 | 1016.8 |
| 20260502055006 | 51 | 46 | 0.0 | 0.0 | 0.00 | 0.93 | 0.00 | 96 | 1016.7 |
| 20260502054507 | 51 | 46 | 0.0 | 0.0 | 0.00 | 0.93 | 0.00 | 96 | 1016.7 |
| 20260502053506 | 51 | 45 | 0.0 | 0.0 | 0.01 | 0.93 | 0.00 | 96 | 1017.0 |
| 20260502053008 | 51 | 46 | 0.0 | 0.0 | 0.01 | 0.93 | 0.00 | 96 | 1017.0 |
| 20260502052507 | 51 | 45 | 0.0 | 0.0 | 0.01 | 0.93 | 0.00 | 96 | 1016.9 |
| 20260502052009 | 51 | 45 | 0.0 | 0.0 | 0.01 | 0.93 | 0.00 | 96 | 1016.7 |
| 20260502051510 | 51 | 46 | 0.0 | 0.0 | 0.01 | 0.93 | 0.00 | 96 | 1016.7 |
| 20260502051008 | 51 | 45 | 0.0 | 0.0 | 0.01 | 0.93 | 0.00 | 96 | 1017.0 |
| 20260502050507 | 51 | 45 | 0.0 | 0.0 | 0.02 | 0.93 | 0.00 | 96 | 1016.8 |
| 20260502050018 | 51 | 45 | 0.0 | 0.0 | 0.02 | 0.93 | 0.00 | 96 | 1016.8 |
| 20260502045506 | 51 | 46 | 0.0 | 0.0 | 0.02 | 0.95 | 0.93 | 96 | 1016.9 |
| 20260502045007 | 51 | 46 | 0.0 | 0.0 | 0.03 | 0.95 | 0.93 | 96 | 1016.8 |
| 20260502044509 | 51 | 46 | 0.0 | 0.0 | 0.03 | 0.95 | 0.93 | 96 | 1016.9 |
| 20260502044008 | 51 | 45 | 0.0 | 0.0 | 0.02 | 0.94 | 0.92 | 96 | 1017.3 |
| 20260502043505 | 51 | 46 | 0.0 | 0.0 | 0.03 | 0.94 | 0.92 | 96 | 1017.0 |
| 20260502043009 | 51 | 46 | 0.0 | 0.0 | 0.03 | 0.94 | 0.92 | 96 | 1016.7 |
| 20260502042007 | 51 | 46 | 0.0 | 0.0 | 0.03 | 0.94 | 0.92 | 96 | 1017.2 |
| 20260502041507 | 51 | 45 | 0.0 | 0.0 | 0.04 | 0.94 | 0.92 | 96 | 1017.3 |
| 20260502041007 | 51 | 45 | 0.0 | 0.0 | 0.04 | 0.94 | 0.92 | 96 | 1017.3 |
| 20260502040505 | 50 | 45 | 0.0 | 0.0 | 0.03 | 0.93 | 0.91 | 96 | 1017.2 |
| 20260502040008 | 50 | 45 | 0.0 | 0.0 | 0.04 | 0.93 | 0.91 | 96 | 1017.1 |
| 20260502035506 | 50 | 45 | 0.0 | 0.0 | 0.04 | 0.93 | 0.91 | 96 | 1017.2 |
| 20260502035005 | 50 | 45 | 0.0 | 0.0 | 0.04 | 0.92 | 0.90 | 96 | 1016.9 |
| 20260502034508 | 50 | 45 | 0.0 | 0.0 | 0.04 | 0.92 | 0.90 | 96 | 1016.8 |
| 20260502034006 | 50 | 46 | 0.0 | 0.0 | 0.04 | 0.92 | 0.90 | 96 | 1016.6 |
| 20260502033505 | 50 | 46 | 0.0 | 0.0 | 0.03 | 0.91 | 0.89 | 96 | 1016.6 |
| 20260502033008 | 50 | 46 | 0.0 | 0.0 | 0.03 | 0.91 | 0.89 | 96 | 1016.8 |
| 20260502032505 | 50 | 45 | 0.0 | 0.0 | 0.04 | 0.91 | 0.89 | 96 | 1016.8 |
| 20260502031506 | 50 | 45 | 0.0 | 0.0 | 0.03 | 0.90 | 0.88 | 95 | 1016.7 |
| 20260502031006 | 50 | 45 | 0.0 | 0.9 | 0.03 | 0.90 | 0.88 | 96 | 1016.5 |
| 20260502030505 | 50 | 45 | 0.0 | 1.7 | 0.03 | 0.90 | 0.88 | 96 | 1016.6 |
| 20260502030007 | 50 | 46 | 0.0 | 0.9 | 0.02 | 0.90 | 0.87 | 95 | 1016.5 |
| 20260502025505 | 50 | 46 | 0.0 | 0.0 | 0.02 | 0.90 | 0.87 | 95 | 1016.5 |
| 20260502024506 | 50 | 46 | 0.0 | 0.0 | 0.01 | 0.89 | 0.86 | 95 | 1016.6 |
| 20260502024006 | 50 | 46 | 0.0 | 1.7 | 0.01 | 0.89 | 0.86 | 95 | 1016.1 |
| 20260502023505 | 50 | 46 | 0.9 | 1.7 | 0.01 | 0.89 | 0.86 | 95 | 1015.7 |
| 20260502023007 | 50 | 46 | 0.9 | 1.7 | 0.01 | 0.89 | 0.86 | 95 | 1015.4 |
| 20260502022505 | 50 | 66 | 0.9 | 1.7 | 0.00 | 0.88 | 0.85 | 95 | 1015.2 |
| 20260502022007 | 50 | 24 | 0.9 | 1.7 | 0.00 | 0.88 | 0.85 | 95 | 1015.8 |
| 20260502021006 | 50 | 24 | 0.9 | 2.6 | 0.01 | 0.88 | 0.85 | 95 | 1016.2 |
| 20260502020505 | 50 | 24 | 0.9 | 2.6 | 0.01 | 0.88 | 0.85 | 95 | 1016.3 |
| 20260502020011 | 50 | 25 | 0.9 | 2.6 | 0.01 | 0.88 | 0.85 | 95 | 1015.9 |
| 20260502015506 | 49 | 28 | 0.9 | 2.6 | 0.02 | 0.88 | 0.85 | 95 | 1015.9 |
| 20260502015007 | 49 | 28 | 0.9 | 2.6 | 0.02 | 0.88 | 0.85 | 95 | 1015.6 |
| 20260502014508 | 49 | 69 | 0.9 | 3.5 | 0.02 | 0.88 | 0.85 | 95 | 1014.9 |
| 20260502014007 | 49 | 70 | 1.7 | 4.3 | 0.02 | 0.88 | 0.85 | 95 | 1014.4 |
| 20260502013506 | 49 | 17 | 1.7 | 4.3 | 0.02 | 0.88 | 0.85 | 95 | 1014.1 |
| 20260502012507 | 49 | 54 | 1.7 | 4.3 | 0.02 | 0.88 | 0.85 | 95 | 1013.9 |
| 20260502012007 | 49 | 53 | 0.9 | 4.3 | 0.03 | 0.88 | 0.85 | 95 | 1014.0 |
| 20260502011507 | 49 | 58 | 0.9 | 2.6 | 0.02 | 0.87 | 0.84 | 95 | 1014.1 |
| 20260502011008 | 49 | 38 | 1.7 | 2.6 | 0.02 | 0.87 | 0.84 | 95 | 1014.2 |
| 20260502010506 | 50 | 90 | 0.9 | 2.6 | 0.03 | 0.87 | 0.84 | 95 | 1014.2 |
| 20260502005506 | 50 | 55 | 0.9 | 3.5 | 0.03 | 0.86 | 0.83 | 95 | 1014.1 |
| 20260502005007 | 50 | 62 | 0.9 | 3.5 | 0.04 | 0.86 | 0.83 | 95 | 1014.2 |
| 20260502004507 | 50 | 41 | 0.9 | 2.6 | 0.05 | 0.86 | 0.83 | 95 | 1014.1 |
| 20260502004006 | 50 | 60 | 0.9 | 2.6 | 0.07 | 0.86 | 0.83 | 95 | 1014.3 |
| 20260502003505 | 50 | 150 | 1.7 | 2.6 | 0.08 | 0.86 | 0.83 | 95 | 1014.3 |
| 20260502003008 | 50 | 69 | 1.7 | 3.5 | 0.10 | 0.86 | 0.83 | 95 | 1014.4 |
| 20260502002506 | 50 | 59 | 1.7 | 3.5 | 0.12 | 0.86 | 0.83 | 95 | 1014.3 |
| 20260502002008 | 50 | 36 | 1.7 | 3.5 | 0.12 | 0.85 | 0.82 | 95 | 1014.5 |
| 20260502001507 | 50 | 61 | 1.7 | 2.6 | 0.13 | 0.85 | 0.82 | 95 | 1014.9 |
| 20260502001008 | 50 | 55 | 1.7 | 2.6 | 0.14 | 0.85 | 0.82 | 95 | 1015.2 |